Weather in Blechepsin

Russia / Republic of Adygea     44°49′17″N   40°29′46″E
temp.,
°C
wind,
m/s
gust,
m/s
humid.,
%
clouds,
%
prec.,
mm/h
press.,
hPa
HPBL,
m
29 january, sat
sat2900:00−5s2287100 0.0 102025
03:00−5s2287100 0.0 102019
06:00−4sse2285100 0.0 101925
09:00−1sse2384100 0.0 101955
12:00+1n00100100 0.1 101917
15:00+1sw3798100 0.1 1019208
18:00−1sw488365 0.0 1020162
21:00−5ssw349319 0.0 102166
30 january, sun
sun3000:00−3sw4109168 0.0 1021317
03:00−3sw399467 0.0 1021339
06:00−4ssw249392 0.0 102085
09:00−1ssw249598 0.4 1019183
12:00+1ssw239997 0.1 1018157
15:00+1se1210099 0.1 101673
18:00+1se239299 0.0 101569
21:00−3sse338981 0.0 101439
31 january, mon
mon3100:00−4sse2290100 0.0 101223
03:00−3sse3385100 0.0 101132
06:00−2sse2286100 0.0 101127
09:000sse228699 0.0 101131
12:00+2s129895 0.0 101173
15:00+4wsw8168998 0.0 1011566
18:00+3wsw71577100 0.0 1013506
21:00+2wsw51281100 0.0 1014311
1 february, tue
tue100:000sw3791100 0.0 1015170
03:00−1sw359110 0.0 1016107
06:00−2s228998 0.0 101729
09:00−1se358417 0.0 101896
12:00+2ese3789100 0.0 1017263
15:00+3ese3786100 0.0 1015218
18:00+1ese3586100 0.0 101590
21:00+1ese3383100 0.0 101447
2 february, wed
wed200:00+1se3483100 0.0 101449
03:00+1se3477100 0.0 101362
06:00+1sse2274100 0.0 101231
09:00+3s2277100 0.0 101216
12:00+5se2380100 0.0 101161
15:00+6se2282100 0.0 101138
18:00+4sse2281100 0.0 101212
21:00+4sse1184100 0.0 101311